Burley, ID

3:47 AM MDT on March 23, 2017 (GMT -0600)
Burley Municipal

Weather History for KBYI - March, 2014

Change the Weather History Date:

Saturday, March 15, 2014

  Actual Average Record
Temperature  
Mean Temperature 44 °F 39 °F  
Max Temperature 55 °F 50 °F 76 °F (1994)
Min Temperature 33 °F 28 °F 14 °F (1959)
Degree Days  
Heating Degree Days 21 26  
Month to date heating degree days 318 417  
Since 1 July heating degree days 5013 5439  
Cooling Degree Days 0 0  
Month to date cooling degree days 0 0  
Year to date cooling degree days 0 0  
Moisture  
Dew Point 22 °F    
Average Humidity 50    
Maximum Humidity 82    
Minimum Humidity 18    
Precipitation  
Precipitation 0.00 in 0.04 in 0.23 in (1982)
Month to date precipitation 0.85 0.50  
Year to date precipitation 2.69 2.18  
Sea Level Pressure  
Sea Level Pressure 30.33 in    
Wind  
Wind Speed 13 mph (WSW)    
Max Wind Speed 22 mph    
Max Gust Speed 29 mph    
Visibility 10 miles    
Events      
T = Trace of Precipitation, MM = Missing Value Source: NWS Daily Summary

Daily Weather History Graph

Daily Weather History Graph

Search for Another Location

Airport or City:

Trip Planner

Search our weather history database for the weather conditions in past years. The results will help you decide how hot, cold, wet, or windy it might be!

Date:

Astronomy

Mar. 15, 2014 Rise Set
Actual Time 7:46 AM MDT 7:41 PM MDT
Civil Twilight 7:18 AM MDT 8:09 PM MDT
Nautical Twilight 6:46 AM MDT 8:42 PM MDT
Astronomical Twilight 6:12 AM MDT 9:15 PM MDT
Moon 7:04 PM MDT (3/15) 7:01 AM MDT (3/15)
Length of Visible Light 12h 50m
Length of Day
11h 54m
Waxing Gibbous, 99% of the Moon is Illuminated
Mar 15
Waxing Gibbous
Mar 16
Full
Mar 23
Last Quarter
Mar 30
New
Apr 7
First Quarter

Hourly Weather History & Observations

Time (MDT) Temp. Windchill Dew Point Humidity Pressure Visibility Wind Dir Wind Speed Gust Speed Precip Events Conditions
12:53 AM 39.9 °F 31.4 °F 33.1 °F 77% 30.12 in 10.0 mi WSW 16.1 mph - N/A   Clear
1:53 AM 39.9 °F 31.8 °F 33.1 °F 77% 30.13 in 10.0 mi WSW 15.0 mph - N/A   Clear
2:53 AM 37.0 °F 28.9 °F 30.0 °F 76% 30.17 in 10.0 mi WSW 12.7 mph - N/A   Clear
3:53 AM 37.0 °F 28.5 °F 26.1 °F 65% 30.19 in 10.0 mi West 13.8 mph - N/A   Clear
4:53 AM 36.0 °F 26.7 °F 27.0 °F 70% 30.21 in 10.0 mi West 15.0 mph 23.0 mph N/A   Clear
5:53 AM 34.0 °F 23.4 °F 28.0 °F 79% 30.26 in 10.0 mi WSW 17.3 mph - N/A   Clear
6:53 AM 34.0 °F 23.8 °F 27.0 °F 75% 30.30 in 10.0 mi WSW 16.1 mph - N/A   Clear
7:53 AM 35.1 °F 24.5 °F 25.0 °F 67% 30.32 in 10.0 mi West 18.4 mph 26.5 mph N/A   Clear
8:53 AM 37.9 °F 28.2 °F 25.0 °F 60% 30.36 in 10.0 mi West 18.4 mph 28.8 mph N/A   Clear
9:53 AM 42.1 °F 34.2 °F 25.0 °F 51% 30.39 in 10.0 mi West 16.1 mph 25.3 mph N/A   Clear
10:53 AM 45.0 °F 37.6 °F 23.0 °F 42% 30.41 in 10.0 mi WNW 17.3 mph 25.3 mph N/A   Clear
11:53 AM 46.9 °F - 21.0 °F 36% 30.41 in 10.0 mi WNW 17.3 mph 26.5 mph N/A   Clear
12:53 PM 50.0 °F - 21.0 °F 32% 30.41 in 10.0 mi West 13.8 mph 24.2 mph N/A   Clear
1:53 PM 51.1 °F - 19.9 °F 29% 30.39 in 10.0 mi West 13.8 mph 25.3 mph N/A   Clear
2:53 PM 52.0 °F - 18.0 °F 26% 30.39 in 10.0 mi West 13.8 mph 21.9 mph N/A   Clear
3:53 PM 53.1 °F - 18.0 °F 25% 30.38 in 10.0 mi West 13.8 mph 24.2 mph N/A   Clear
4:53 PM 55.0 °F - 15.1 °F 21% 30.37 in 10.0 mi West 13.8 mph 21.9 mph N/A   Clear
5:53 PM 54.0 °F - 10.9 °F 18% 30.37 in 10.0 mi West 11.5 mph - N/A   Clear
6:53 PM 52.0 °F - 12.0 °F 20% 30.38 in 10.0 mi West 10.4 mph - N/A   Clear
7:53 PM 45.0 °F 40.6 °F 18.0 °F 34% 30.39 in 10.0 mi WSW 8.1 mph - N/A   Clear
8:53 PM 39.0 °F 34.8 °F 18.0 °F 43% 30.40 in 10.0 mi SW 5.8 mph - N/A   Clear
9:53 PM 39.0 °F 35.7 °F 17.1 °F 41% 30.40 in 10.0 mi SSE 4.6 mph - N/A   Clear
10:53 PM 35.1 °F 31.0 °F 17.1 °F 48% 30.41 in 10.0 mi South 4.6 mph - N/A   Clear
11:53 PM 34.0 °F 31.0 °F 16.0 °F 48% 30.41 in 10.0 mi SSW 3.5 mph - N/A   Clear